COSMOS 2251 DEB, 34728

Orbit data source: Space-Track

COSMOS 2251 DEB, 34728 is space debris in LEO originally from a launch on Wed, 16 Jun 1993 UTC launched from the Plesetsk Missile And Space Complex (PKMTR). The debris from Iridium 33, an American commercial communications satellite, has been tracked extensively since its accidental collision with the defunct Russian satellite Cosmos 2251 in 2009. This event, occurring at high speed in low Earth orbit (LEO), generated thousands of pieces of space debris, significantly increasing the risk of further collisions. The Iridium 33 debris cloud has impacted space traffic management and orbital debris mitigation strategies, making it a subject of ongoing study in space situational awareness.

Loading next visibility...
Identifier
34728, 1993-036YW
Orbit
LEO
Country
Flag of CISCIS
Related business
Manufacturer
Unknown
Mission
Spacecraft
Bus & Motor
Unknown
Mass
Unknown
Launch date (UTC)
1993-06-16 (33 years ago)
Launch vehicle
Unknown
Launch site
Plesetsk Missile And Space Complex (PKMTR)
Object type
Payload
Rocket body
Debris
Shape & HBR
Unknown shape, 0.1 m
Radar Cross Section
Small (<0.1 m²)

Expand to show TLE details & history
Last TLE update: 1 day ago

TLE from 1 day ago
0 COSMOS 2251 DEB
1 34728U 93036YW  26177.85982635  .00003012  00000-0  47338-3 0  9998
2 34728  74.0167 230.0133 0043080 337.5426  22.3859 14.72432836916856
Epoch: 2026-06-26T20:38Z
TLE epoch observation values (Epoch: 2026-06-26T20:38:08.996Z)
Latitude
0.00002°
Longitude
5.49354°
Altitude
627.972 km
Speed
7.56 km/s
True Right ascension
15h 20m 03s
True Declination
0° 00' 00"
Sunlit
Object was in full shadow at epoch
Visualization orbit readout
Latitude
Unknown
Longitude
Unknown
Altitude
Unknown
Speed
Unknown
Apparent Right ascension
Unknown
Apparent Declination
Unknown
Sunlit
N/A
Visualization observer readout
Local Sidereal Time
08:01:43
Azimuth
Unknown
Elevation
Unknown
Doppler factor
Unknown
Orbital elements
Apogee altitude
681.179 km
Perigee altitude
620.617 km
Semi-major axis
7,029.035 km
Eccentricity
0.00431
Inclination
74.0167°
RAAN
230.0133°
Arg. of periapsis
337.5426°
True anomaly
22.57485°
Mean anomaly
22.3859°
Eccentric anomaly
22.48028°
Mean motion
3.68298 °/min
Orbital period
97.75 mins
BSTAR
0.00047338
Loading maneuver chart data...
Computing Atmospheric mass density...

Documentation

Showing up to 5 results
|